Year,Month,Day,Hour,Minute,Value (Times are PST for temperature in C)
2013,10,14,00,00,5.30
2013,10,14,00,01,5.30
2013,10,14,00,02,5.30
2013,10,14,00,03,5.30
2013,10,14,00,04,5.30
2013,10,14,00,05,5.20
2013,10,14,00,06,5.20
2013,10,14,00,07,5.20
2013,10,14,00,08,5.10
2013,10,14,00,09,5.10
2013,10,14,00,10,5.10
2013,10,14,00,11,5.10
2013,10,14,00,12,5.10
2013,10,14,00,13,5.10
2013,10,14,00,14,5.10
2013,10,14,00,15,5.10
2013,10,14,00,16,5.10
2013,10,14,00,17,5.10
2013,10,14,00,18,5.10
2013,10,14,00,19,5.00
2013,10,14,00,20,4.90
2013,10,14,00,21,4.90
2013,10,14,00,22,4.90
2013,10,14,00,23,4.90
2013,10,14,00,24,4.90
2013,10,14,00,25,4.90
2013,10,14,00,26,4.90
2013,10,14,00,27,4.90
2013,10,14,00,28,4.80
2013,10,14,00,29,4.80
2013,10,14,00,30,4.80
2013,10,14,00,31,4.80
2013,10,14,00,32,4.80
2013,10,14,00,33,4.70
2013,10,14,00,34,4.70
2013,10,14,00,35,4.70
2013,10,14,00,36,4.70
2013,10,14,00,37,4.70
2013,10,14,00,38,4.60
2013,10,14,00,39,4.60
2013,10,14,00,40,4.60
2013,10,14,00,41,4.60
2013,10,14,00,42,4.60
2013,10,14,00,43,4.60
2013,10,14,00,44,4.60
2013,10,14,00,45,4.50
2013,10,14,00,46,4.50
2013,10,14,00,47,4.50
2013,10,14,00,48,4.50
2013,10,14,00,49,4.50
2013,10,14,00,50,4.50
2013,10,14,00,51,4.40
2013,10,14,00,52,4.40
2013,10,14,00,53,4.40
2013,10,14,00,54,4.40
2013,10,14,00,55,4.40
2013,10,14,00,56,4.40
2013,10,14,00,57,4.40
2013,10,14,00,58,4.40
2013,10,14,00,59,4.40
2013,10,14,01,00,4.40
2013,10,14,01,01,4.40
2013,10,14,01,02,4.40
2013,10,14,01,03,4.40
2013,10,14,01,04,4.40
2013,10,14,01,05,4.40
2013,10,14,01,06,4.40
2013,10,14,01,07,4.40
2013,10,14,01,08,4.40
2013,10,14,01,09,4.50
2013,10,14,01,10,4.50
2013,10,14,01,11,4.50
2013,10,14,01,12,4.60
2013,10,14,01,13,4.60
2013,10,14,01,14,4.60
2013,10,14,01,15,4.60
2013,10,14,01,16,4.60
2013,10,14,01,17,4.60
2013,10,14,01,18,4.60
2013,10,14,01,19,4.60
2013,10,14,01,20,4.60
2013,10,14,01,21,4.60
2013,10,14,01,22,4.60
2013,10,14,01,23,4.50
2013,10,14,01,24,4.50
2013,10,14,01,25,4.50
2013,10,14,01,26,4.50
2013,10,14,01,27,4.40
2013,10,14,01,28,4.40
2013,10,14,01,29,4.40
2013,10,14,01,30,4.40
2013,10,14,01,31,4.40
2013,10,14,01,32,4.30
2013,10,14,01,33,4.30
2013,10,14,01,34,4.30
2013,10,14,01,35,4.30
2013,10,14,01,36,4.40
2013,10,14,01,37,4.40
2013,10,14,01,38,4.40
2013,10,14,01,39,4.40
2013,10,14,01,40,4.40
2013,10,14,01,41,4.40
2013,10,14,01,42,4.40
2013,10,14,01,43,4.40
2013,10,14,01,44,4.40
2013,10,14,01,45,4.40
2013,10,14,01,46,4.40
2013,10,14,01,47,4.40
2013,10,14,01,48,4.40
2013,10,14,01,49,4.40
2013,10,14,01,50,4.30
2013,10,14,01,51,4.30
2013,10,14,01,52,4.30
2013,10,14,01,53,4.30
2013,10,14,01,54,4.30
2013,10,14,01,55,4.20
2013,10,14,01,56,4.20
2013,10,14,01,57,4.20
2013,10,14,01,58,4.20
2013,10,14,01,59,4.20
2013,10,14,02,00,4.20
2013,10,14,02,01,4.20
2013,10,14,02,02,4.20
2013,10,14,02,03,4.20
2013,10,14,02,04,4.20
2013,10,14,02,05,4.20
2013,10,14,02,06,4.20
2013,10,14,02,07,4.20
2013,10,14,02,08,4.20
2013,10,14,02,09,4.20
2013,10,14,02,10,4.20
2013,10,14,02,11,4.20
2013,10,14,02,12,4.20
2013,10,14,02,13,4.20
2013,10,14,02,14,4.20
2013,10,14,02,15,4.20
2013,10,14,02,16,4.20
2013,10,14,02,17,4.20
2013,10,14,02,18,4.20
2013,10,14,02,19,4.20
2013,10,14,02,20,4.20
2013,10,14,02,21,4.10
2013,10,14,02,22,4.10
2013,10,14,02,23,4.10
2013,10,14,02,24,4.10
2013,10,14,02,25,4.00
2013,10,14,02,26,4.00
2013,10,14,02,27,4.00
2013,10,14,02,28,4.00
2013,10,14,02,29,4.00
2013,10,14,02,30,4.00
2013,10,14,02,31,3.90
2013,10,14,02,32,3.90
2013,10,14,02,33,3.90
2013,10,14,02,34,3.90
2013,10,14,02,35,3.90
2013,10,14,02,36,3.80
2013,10,14,02,37,3.80
2013,10,14,02,38,3.80
2013,10,14,02,39,3.80
2013,10,14,02,40,3.80
2013,10,14,02,41,3.80
2013,10,14,02,42,3.80
2013,10,14,02,43,3.80
2013,10,14,02,44,3.80
2013,10,14,02,45,3.80
2013,10,14,02,46,3.80
2013,10,14,02,47,3.80
2013,10,14,02,48,3.80
2013,10,14,02,49,3.80
2013,10,14,02,50,3.80
2013,10,14,02,51,3.80
2013,10,14,02,52,3.80
2013,10,14,02,53,3.80
2013,10,14,02,54,3.80
2013,10,14,02,55,3.80
2013,10,14,02,56,3.80
2013,10,14,02,57,3.80
2013,10,14,02,58,3.80
2013,10,14,02,59,3.80
2013,10,14,03,00,3.80
2013,10,14,03,01,3.80
2013,10,14,03,02,3.70
2013,10,14,03,03,3.70
2013,10,14,03,04,3.70
2013,10,14,03,05,3.70
2013,10,14,03,06,3.70
2013,10,14,03,07,3.60
2013,10,14,03,08,3.60
2013,10,14,03,09,3.60
2013,10,14,03,10,3.60
2013,10,14,03,11,3.60
2013,10,14,03,12,3.50
2013,10,14,03,13,3.50
2013,10,14,03,14,3.50
2013,10,14,03,15,3.50
2013,10,14,03,16,3.50
2013,10,14,03,17,3.50
2013,10,14,03,18,3.50
2013,10,14,03,19,3.50
2013,10,14,03,20,3.40
2013,10,14,03,21,3.40
2013,10,14,03,22,3.40
2013,10,14,03,23,3.40
2013,10,14,03,24,3.40
2013,10,14,03,25,3.40
2013,10,14,03,26,3.40
2013,10,14,03,27,3.40
2013,10,14,03,28,3.50
2013,10,14,03,29,3.50
2013,10,14,03,30,3.50
2013,10,14,03,31,3.50
2013,10,14,03,32,3.50
2013,10,14,03,33,3.60
2013,10,14,03,34,3.60
2013,10,14,03,35,3.60
2013,10,14,03,36,3.60
2013,10,14,03,37,3.60
2013,10,14,03,38,3.60
2013,10,14,03,39,3.60
2013,10,14,03,40,3.60
2013,10,14,03,41,3.60
2013,10,14,03,42,3.60
2013,10,14,03,43,3.50
2013,10,14,03,44,3.50
2013,10,14,03,45,3.50
2013,10,14,03,46,3.50
2013,10,14,03,47,3.50
2013,10,14,03,48,3.50
2013,10,14,03,49,3.40
2013,10,14,03,50,3.40
2013,10,14,03,51,3.40
2013,10,14,03,52,3.40
2013,10,14,03,53,3.40
2013,10,14,03,54,3.40
2013,10,14,03,55,3.40
2013,10,14,03,56,3.30
2013,10,14,03,57,3.30
2013,10,14,03,58,3.30
2013,10,14,03,59,3.30
2013,10,14,04,00,3.30
2013,10,14,04,01,3.30
2013,10,14,04,02,3.30
2013,10,14,04,03,3.30
2013,10,14,04,04,3.30
2013,10,14,04,05,3.30
2013,10,14,04,06,3.30
2013,10,14,04,07,3.30
2013,10,14,04,08,3.30
2013,10,14,04,09,3.30
2013,10,14,04,10,3.30
2013,10,14,04,11,3.30
2013,10,14,04,12,3.30
2013,10,14,04,13,3.30
2013,10,14,04,14,3.30
2013,10,14,04,15,3.30
2013,10,14,04,16,3.30
2013,10,14,04,17,3.30
2013,10,14,04,18,3.30
2013,10,14,04,19,3.30
2013,10,14,04,20,3.30
2013,10,14,04,21,3.30
2013,10,14,04,22,3.30
2013,10,14,04,23,3.30
2013,10,14,04,24,3.30
2013,10,14,04,25,3.30
2013,10,14,04,26,3.30
2013,10,14,04,27,3.30
2013,10,14,04,28,3.30
2013,10,14,04,29,3.30
2013,10,14,04,30,3.30
2013,10,14,04,31,3.30
2013,10,14,04,32,3.30
2013,10,14,04,33,3.30
2013,10,14,04,34,3.30
2013,10,14,04,35,3.30
2013,10,14,04,36,3.30
2013,10,14,04,37,3.30
2013,10,14,04,38,3.30
2013,10,14,04,39,3.20
2013,10,14,04,40,3.20
2013,10,14,04,41,3.20
2013,10,14,04,42,3.20
2013,10,14,04,43,3.20
2013,10,14,04,44,3.20
2013,10,14,04,45,3.20
2013,10,14,04,46,3.20
2013,10,14,04,47,3.10
2013,10,14,04,48,3.10
2013,10,14,04,49,3.10
2013,10,14,04,50,3.10
2013,10,14,04,51,3.10
2013,10,14,04,52,3.10
2013,10,14,04,53,3.10
2013,10,14,04,54,3.10
2013,10,14,04,55,3.10
2013,10,14,04,56,3.10
2013,10,14,04,57,3.10
2013,10,14,04,58,3.10
2013,10,14,04,59,3.10
2013,10,14,05,00,3.10
2013,10,14,05,01,3.10
2013,10,14,05,02,3.10
2013,10,14,05,03,3.10
2013,10,14,05,04,3.10
2013,10,14,05,05,3.10
2013,10,14,05,06,3.10
2013,10,14,05,07,3.10
2013,10,14,05,08,3.10
2013,10,14,05,09,3.10
2013,10,14,05,10,3.10
2013,10,14,05,11,3.10
2013,10,14,05,12,3.10
2013,10,14,05,13,3.10
2013,10,14,05,14,3.10
2013,10,14,05,15,3.00
2013,10,14,05,16,2.90
2013,10,14,05,17,2.90
2013,10,14,05,18,2.90
2013,10,14,05,19,2.90
2013,10,14,05,20,2.90
2013,10,14,05,21,2.90
2013,10,14,05,22,2.90
2013,10,14,05,23,2.90
2013,10,14,05,24,2.90
2013,10,14,05,25,2.90
2013,10,14,05,26,2.90
2013,10,14,05,27,2.90
2013,10,14,05,28,2.90
2013,10,14,05,29,2.90
2013,10,14,05,30,2.90
2013,10,14,05,31,2.90
2013,10,14,05,32,2.90
2013,10,14,05,33,2.90
2013,10,14,05,34,2.90
2013,10,14,05,35,2.90
2013,10,14,05,36,2.90
2013,10,14,05,37,2.90
2013,10,14,05,38,2.90
2013,10,14,05,39,2.90
2013,10,14,05,40,2.90
2013,10,14,05,41,2.90
2013,10,14,05,42,2.90
2013,10,14,05,43,2.90
2013,10,14,05,44,2.90
2013,10,14,05,45,2.90
2013,10,14,05,46,2.90
2013,10,14,05,47,2.90
2013,10,14,05,48,2.90
2013,10,14,05,49,2.90
2013,10,14,05,50,2.90
2013,10,14,05,51,2.90
2013,10,14,05,52,2.90
2013,10,14,05,53,2.90
2013,10,14,05,54,2.90
2013,10,14,05,55,2.90
2013,10,14,05,56,2.90
2013,10,14,05,57,2.90
2013,10,14,05,58,2.90
2013,10,14,05,59,2.90
2013,10,14,06,00,2.90
2013,10,14,06,01,2.90
2013,10,14,06,02,2.90
2013,10,14,06,03,2.90
2013,10,14,06,04,2.90
2013,10,14,06,05,2.90
2013,10,14,06,06,2.90
2013,10,14,06,07,2.90
2013,10,14,06,08,2.90
2013,10,14,06,09,2.90
2013,10,14,06,10,2.90
2013,10,14,06,11,2.90
2013,10,14,06,12,2.90
2013,10,14,06,13,2.90
2013,10,14,06,14,2.90
2013,10,14,06,15,2.90
2013,10,14,06,16,2.90
2013,10,14,06,17,2.90
2013,10,14,06,18,2.90
2013,10,14,06,19,2.90
2013,10,14,06,20,2.90
2013,10,14,06,21,2.90
2013,10,14,06,22,2.90
2013,10,14,06,23,3.00
2013,10,14,06,24,3.10
2013,10,14,06,25,3.10
2013,10,14,06,26,3.20
2013,10,14,06,27,3.30
2013,10,14,06,28,3.30
2013,10,14,06,29,3.30
2013,10,14,06,30,3.30
2013,10,14,06,31,3.30
2013,10,14,06,32,3.30
2013,10,14,06,33,3.30
2013,10,14,06,34,3.30
2013,10,14,06,35,3.30
2013,10,14,06,36,3.30
2013,10,14,06,37,3.30
2013,10,14,06,38,3.30
2013,10,14,06,39,3.30
2013,10,14,06,40,3.20
2013,10,14,06,41,3.20
2013,10,14,06,42,3.20
2013,10,14,06,43,3.20
2013,10,14,06,44,3.10
2013,10,14,06,45,3.10
2013,10,14,06,46,3.10
2013,10,14,06,47,3.10
2013,10,14,06,48,3.10
2013,10,14,06,49,3.10
2013,10,14,06,50,3.10
2013,10,14,06,51,3.20
2013,10,14,06,52,3.30
2013,10,14,06,53,3.40
2013,10,14,06,54,3.60
2013,10,14,06,55,3.70
2013,10,14,06,56,3.90
2013,10,14,06,57,4.00
2013,10,14,06,58,4.10
2013,10,14,06,59,4.20
2013,10,14,07,00,4.30
2013,10,14,07,01,4.40
2013,10,14,07,02,4.50
2013,10,14,07,03,4.60
2013,10,14,07,04,4.70
2013,10,14,07,05,4.80
2013,10,14,07,06,4.90
2013,10,14,07,07,4.90
2013,10,14,07,08,5.00
2013,10,14,07,09,5.10
2013,10,14,07,10,5.10
2013,10,14,07,11,5.10
2013,10,14,07,12,4.90
2013,10,14,07,13,4.60
2013,10,14,07,14,4.30
2013,10,14,07,15,4.20
2013,10,14,07,16,4.00
2013,10,14,07,17,3.90
2013,10,14,07,18,3.80
2013,10,14,07,19,3.80
2013,10,14,07,20,3.80
2013,10,14,07,21,3.70
2013,10,14,07,22,3.70
2013,10,14,07,23,3.60
2013,10,14,07,24,3.60
2013,10,14,07,25,3.50
2013,10,14,07,26,3.50
2013,10,14,07,27,3.50
2013,10,14,07,28,3.40
2013,10,14,07,29,3.40
2013,10,14,07,30,3.40
2013,10,14,07,31,3.30
2013,10,14,07,32,3.30
2013,10,14,07,33,3.30
2013,10,14,07,34,3.30
2013,10,14,07,35,3.30
2013,10,14,07,36,3.30
2013,10,14,07,37,3.30
2013,10,14,07,38,3.30
2013,10,14,07,39,3.30
2013,10,14,07,40,3.30
2013,10,14,07,41,3.20
2013,10,14,07,42,3.20
2013,10,14,07,43,3.20
2013,10,14,07,44,3.20
2013,10,14,07,45,3.20
2013,10,14,07,46,3.20
2013,10,14,07,47,3.10
2013,10,14,07,48,3.20
2013,10,14,07,49,3.20
2013,10,14,07,50,3.20
2013,10,14,07,51,3.20
2013,10,14,07,52,3.30
2013,10,14,07,53,3.30
2013,10,14,07,54,3.30
2013,10,14,07,55,3.30
2013,10,14,07,56,3.30
2013,10,14,07,57,3.30
2013,10,14,07,58,3.30
2013,10,14,07,59,3.30
2013,10,14,08,00,3.30
2013,10,14,08,01,3.30
2013,10,14,08,02,3.30
2013,10,14,08,03,3.30
2013,10,14,08,04,3.40
2013,10,14,08,05,3.50
2013,10,14,08,06,3.50
2013,10,14,08,07,3.60
2013,10,14,08,08,3.60
2013,10,14,08,09,3.70
2013,10,14,08,10,3.70
2013,10,14,08,11,3.80
2013,10,14,08,12,3.80
2013,10,14,08,13,3.80
2013,10,14,08,14,3.80
2013,10,14,08,15,3.80
2013,10,14,08,16,3.80
2013,10,14,08,17,3.80
2013,10,14,08,18,3.80
2013,10,14,08,19,3.80
2013,10,14,08,20,3.80
2013,10,14,08,21,3.80
2013,10,14,08,22,3.90
2013,10,14,08,23,3.90
2013,10,14,08,24,3.90
2013,10,14,08,25,4.00
2013,10,14,08,26,4.00
2013,10,14,08,27,4.10
2013,10,14,08,28,4.10
2013,10,14,08,29,4.20
2013,10,14,08,30,4.20
2013,10,14,08,31,4.20
2013,10,14,08,32,4.30
2013,10,14,08,33,4.40
2013,10,14,08,34,4.40
2013,10,14,08,35,4.50
2013,10,14,08,36,4.60
2013,10,14,08,37,4.60
2013,10,14,08,38,4.70
2013,10,14,08,39,4.80
2013,10,14,08,40,4.80
2013,10,14,08,41,4.90
2013,10,14,08,42,4.90
2013,10,14,08,43,5.00
2013,10,14,08,44,5.10
2013,10,14,08,45,5.10
2013,10,14,08,46,5.10
2013,10,14,08,47,5.10
2013,10,14,08,48,5.20
2013,10,14,08,49,5.30
2013,10,14,08,50,5.30
2013,10,14,08,51,5.40
2013,10,14,08,52,5.50
2013,10,14,08,53,5.50
2013,10,14,08,54,5.70
2013,10,14,08,55,5.80
2013,10,14,08,56,5.90
2013,10,14,08,57,6.00
2013,10,14,08,58,6.20
2013,10,14,08,59,6.20
2013,10,14,09,00,6.40
2013,10,14,09,01,6.40
2013,10,14,09,02,6.60
2013,10,14,09,03,6.70
2013,10,14,09,04,6.80
2013,10,14,09,05,6.80
2013,10,14,09,06,6.90
2013,10,14,09,07,7.00
2013,10,14,09,08,7.10
2013,10,14,09,09,7.20
2013,10,14,09,10,7.30
2013,10,14,09,11,7.30
2013,10,14,09,12,7.40
2013,10,14,09,13,7.50
2013,10,14,09,14,7.60
2013,10,14,09,15,7.70
2013,10,14,09,16,7.80
2013,10,14,09,17,7.80
2013,10,14,09,18,7.80
2013,10,14,09,19,7.90
2013,10,14,09,20,8.00
2013,10,14,09,21,8.10
2013,10,14,09,22,8.20
2013,10,14,09,23,8.20
2013,10,14,09,24,8.30
2013,10,14,09,25,8.40
2013,10,14,09,26,8.50
2013,10,14,09,27,8.60
2013,10,14,09,28,8.70
2013,10,14,09,29,8.80
2013,10,14,09,30,8.90
2013,10,14,09,31,9.00
2013,10,14,09,32,9.00
2013,10,14,09,33,9.20
2013,10,14,09,34,9.20
2013,10,14,09,35,9.30
2013,10,14,09,36,9.40
2013,10,14,09,37,9.50
2013,10,14,09,38,9.50
2013,10,14,09,39,9.60
2013,10,14,09,40,9.70
2013,10,14,09,41,9.70
2013,10,14,09,42,9.70
2013,10,14,09,43,9.70
2013,10,14,09,44,9.80
2013,10,14,09,45,9.80
2013,10,14,09,46,9.90
2013,10,14,09,47,9.90
2013,10,14,09,48,9.90
2013,10,14,09,49,9.90
2013,10,14,09,50,9.90
2013,10,14,09,51,9.90
2013,10,14,09,52,9.90
2013,10,14,09,53,10.00
2013,10,14,09,54,10.10
2013,10,14,09,55,10.10
2013,10,14,09,56,10.10
2013,10,14,09,57,10.10
2013,10,14,09,58,10.10
2013,10,14,09,59,10.20
2013,10,14,10,00,10.20
2013,10,14,10,01,10.20
2013,10,14,10,02,10.20
2013,10,14,10,03,10.30
2013,10,14,10,04,10.30
2013,10,14,10,05,10.30
2013,10,14,10,06,10.30
2013,10,14,10,07,10.30
2013,10,14,10,08,10.40
2013,10,14,10,09,10.40
2013,10,14,10,10,10.40
2013,10,14,10,11,10.40
2013,10,14,10,12,10.40
2013,10,14,10,13,10.50
2013,10,14,10,14,10.60
2013,10,14,10,15,10.60
2013,10,14,10,16,10.60
2013,10,14,10,17,10.60
2013,10,14,10,18,10.60
2013,10,14,10,19,10.60
2013,10,14,10,20,10.60
2013,10,14,10,21,10.60
2013,10,14,10,22,10.60
2013,10,14,10,23,10.70
2013,10,14,10,24,10.70
2013,10,14,10,25,10.80
2013,10,14,10,26,10.80
2013,10,14,10,27,10.80
2013,10,14,10,28,10.80
2013,10,14,10,29,10.80
2013,10,14,10,30,10.90
2013,10,14,10,31,10.90
2013,10,14,10,32,10.90
2013,10,14,10,33,10.90
2013,10,14,10,34,10.90
2013,10,14,10,35,10.90
2013,10,14,10,36,11.00
2013,10,14,10,37,11.10
2013,10,14,10,38,11.10
2013,10,14,10,39,11.10
2013,10,14,10,40,11.10
2013,10,14,10,41,11.10
2013,10,14,10,42,11.10
2013,10,14,10,43,11.10
2013,10,14,10,44,11.10
2013,10,14,10,45,11.10
2013,10,14,10,46,11.10
2013,10,14,10,47,11.10
2013,10,14,10,48,11.10
2013,10,14,10,49,11.10
2013,10,14,10,50,11.20
2013,10,14,10,51,11.20
2013,10,14,10,52,11.20
2013,10,14,10,53,11.10
2013,10,14,10,54,11.20
2013,10,14,10,55,11.20
2013,10,14,10,56,11.20
2013,10,14,10,57,11.20
2013,10,14,10,58,11.20
2013,10,14,10,59,11.10
2013,10,14,11,00,11.10
2013,10,14,11,01,11.10
2013,10,14,11,02,11.10
2013,10,14,11,03,11.10
2013,10,14,11,04,11.10
2013,10,14,11,05,11.10
2013,10,14,11,06,11.10
2013,10,14,11,07,11.00
2013,10,14,11,08,10.90
2013,10,14,11,09,10.90
2013,10,14,11,10,10.90
2013,10,14,11,11,10.90
2013,10,14,11,12,10.90
2013,10,14,11,13,10.90
2013,10,14,11,14,10.90
2013,10,14,11,15,11.00
2013,10,14,11,16,11.10
2013,10,14,11,17,11.10
2013,10,14,11,18,11.10
2013,10,14,11,19,11.10
2013,10,14,11,20,11.20
2013,10,14,11,21,11.20
2013,10,14,11,22,11.30
2013,10,14,11,23,11.30
2013,10,14,11,24,11.30
2013,10,14,11,25,11.40
2013,10,14,11,26,11.40
2013,10,14,11,27,11.40
2013,10,14,11,28,11.40
2013,10,14,11,29,11.40
2013,10,14,11,30,11.40
2013,10,14,11,31,11.50
2013,10,14,11,32,11.40
2013,10,14,11,33,11.50
2013,10,14,11,34,11.50
2013,10,14,11,35,11.40
2013,10,14,11,36,11.40
2013,10,14,11,37,11.40
2013,10,14,11,38,11.40
2013,10,14,11,39,11.50
2013,10,14,11,40,11.60
2013,10,14,11,41,11.60
2013,10,14,11,42,11.60
2013,10,14,11,43,11.70
2013,10,14,11,44,11.70
2013,10,14,11,45,11.80
2013,10,14,11,46,11.80
2013,10,14,11,47,11.80
2013,10,14,11,48,11.80
2013,10,14,11,49,11.80
2013,10,14,11,50,11.80
2013,10,14,11,51,11.80
2013,10,14,11,52,11.80
2013,10,14,11,53,11.80
2013,10,14,11,54,11.80
2013,10,14,11,55,11.90
2013,10,14,11,56,11.90
2013,10,14,11,57,11.80
2013,10,14,11,58,11.90
2013,10,14,11,59,11.90
2013,10,14,12,00,11.90
2013,10,14,12,01,12.00
2013,10,14,12,02,12.00
2013,10,14,12,03,12.10
2013,10,14,12,04,12.10
2013,10,14,12,05,12.10
2013,10,14,12,06,12.10
2013,10,14,12,07,12.10
2013,10,14,12,08,12.10
2013,10,14,12,09,12.30
2013,10,14,12,10,12.30
2013,10,14,12,11,12.30
2013,10,14,12,12,12.30
2013,10,14,12,13,12.30
2013,10,14,12,14,12.30
2013,10,14,12,15,12.30
2013,10,14,12,16,12.30
2013,10,14,12,17,12.30
2013,10,14,12,18,12.30
2013,10,14,12,19,12.30
2013,10,14,12,20,12.40
2013,10,14,12,21,12.40
2013,10,14,12,22,12.40
2013,10,14,12,23,12.50
2013,10,14,12,24,12.60
2013,10,14,12,25,12.60
2013,10,14,12,26,12.70
2013,10,14,12,27,12.70
2013,10,14,12,28,12.70
2013,10,14,12,29,12.70
2013,10,14,12,30,12.70
2013,10,14,12,31,12.70
2013,10,14,12,32,12.70
2013,10,14,12,33,12.70
2013,10,14,12,34,12.70
2013,10,14,12,35,12.70
2013,10,14,12,36,12.70
2013,10,14,12,37,12.80
2013,10,14,12,38,12.80
2013,10,14,12,39,12.80
2013,10,14,12,40,12.80
2013,10,14,12,41,12.80
2013,10,14,12,42,12.90
2013,10,14,12,43,13.00
2013,10,14,12,44,13.00
2013,10,14,12,45,13.00
2013,10,14,12,46,13.10
2013,10,14,12,47,13.10
2013,10,14,12,48,13.10
2013,10,14,12,49,13.20
2013,10,14,12,50,13.10
2013,10,14,12,51,13.20
2013,10,14,12,52,13.20
2013,10,14,12,53,13.30
2013,10,14,12,54,13.30
2013,10,14,12,55,13.30
2013,10,14,12,56,13.30
2013,10,14,12,57,13.30
2013,10,14,12,58,13.40
2013,10,14,12,59,13.40
2013,10,14,13,00,13.50
2013,10,14,13,01,13.50
2013,10,14,13,02,13.50
2013,10,14,13,03,13.50
2013,10,14,13,04,13.50
2013,10,14,13,05,13.50
2013,10,14,13,06,13.50
2013,10,14,13,07,13.50
2013,10,14,13,08,13.40
2013,10,14,13,09,13.40
2013,10,14,13,10,13.40
2013,10,14,13,11,13.40
2013,10,14,13,12,13.40
2013,10,14,13,13,13.40
2013,10,14,13,14,13.40
2013,10,14,13,15,13.50
2013,10,14,13,16,13.50
2013,10,14,13,17,13.40
2013,10,14,13,18,13.50
2013,10,14,13,19,13.60
2013,10,14,13,20,13.60
2013,10,14,13,21,13.60
2013,10,14,13,22,13.60
2013,10,14,13,23,13.60
2013,10,14,13,24,13.50
2013,10,14,13,25,13.50
2013,10,14,13,26,13.50
2013,10,14,13,27,13.60
2013,10,14,13,28,13.60
2013,10,14,13,29,13.50
2013,10,14,13,30,13.50
2013,10,14,13,31,13.50
2013,10,14,13,32,13.60
2013,10,14,13,33,13.60
2013,10,14,13,34,13.60
2013,10,14,13,35,13.60
2013,10,14,13,36,13.60
2013,10,14,13,37,13.50
2013,10,14,13,38,13.50
2013,10,14,13,39,13.50
2013,10,14,13,40,13.50
2013,10,14,13,41,13.50
2013,10,14,13,42,13.50
2013,10,14,13,43,13.50
2013,10,14,13,44,13.50
2013,10,14,13,45,13.50
2013,10,14,13,46,13.60
2013,10,14,13,47,13.70
2013,10,14,13,48,13.70
2013,10,14,13,49,13.70
2013,10,14,13,50,13.70
2013,10,14,13,51,13.80
2013,10,14,13,52,13.80
2013,10,14,13,53,13.80
2013,10,14,13,54,13.80
2013,10,14,13,55,13.80
2013,10,14,13,56,13.80
2013,10,14,13,57,13.80
2013,10,14,13,58,13.80
2013,10,14,13,59,13.90
2013,10,14,14,00,13.80
2013,10,14,14,01,13.70
2013,10,14,14,02,13.70
2013,10,14,14,03,13.70
2013,10,14,14,04,13.70
2013,10,14,14,05,13.70
2013,10,14,14,06,13.70
2013,10,14,14,07,13.70
2013,10,14,14,08,13.70
2013,10,14,14,09,13.70
2013,10,14,14,10,13.80
2013,10,14,14,11,13.80
2013,10,14,14,12,13.80
2013,10,14,14,13,13.90
2013,10,14,14,14,13.90
2013,10,14,14,15,13.90
2013,10,14,14,16,13.90
2013,10,14,14,17,14.00
2013,10,14,14,18,14.00
2013,10,14,14,19,14.00
2013,10,14,14,20,14.10
2013,10,14,14,21,14.10
2013,10,14,14,22,14.10
2013,10,14,14,23,14.20
2013,10,14,14,24,14.20
2013,10,14,14,25,14.20
2013,10,14,14,26,14.20
2013,10,14,14,27,14.20
2013,10,14,14,28,14.20
2013,10,14,14,29,14.20
2013,10,14,14,30,14.20
2013,10,14,14,31,14.20
2013,10,14,14,32,14.20
2013,10,14,14,33,14.20
2013,10,14,14,34,14.20
2013,10,14,14,35,14.20
2013,10,14,14,36,14.20
2013,10,14,14,37,14.20
2013,10,14,14,38,14.20
2013,10,14,14,39,14.20
2013,10,14,14,40,14.20
2013,10,14,14,41,14.20
2013,10,14,14,42,14.20
2013,10,14,14,43,14.20
2013,10,14,14,44,14.20
2013,10,14,14,45,14.20
2013,10,14,14,46,14.20
2013,10,14,14,47,14.20
2013,10,14,14,48,14.20
2013,10,14,14,49,14.20
2013,10,14,14,50,14.20
2013,10,14,14,51,14.20
2013,10,14,14,52,14.20
2013,10,14,14,53,14.20
2013,10,14,14,54,14.20
2013,10,14,14,55,14.20
2013,10,14,14,56,14.30
2013,10,14,14,57,14.40
2013,10,14,14,58,14.40
2013,10,14,14,59,14.50
2013,10,14,15,00,14.50
2013,10,14,15,01,14.50
2013,10,14,15,02,14.60
2013,10,14,15,03,14.60
2013,10,14,15,04,14.60
2013,10,14,15,05,14.60
2013,10,14,15,06,14.60
2013,10,14,15,07,14.50
2013,10,14,15,08,14.50
2013,10,14,15,09,14.50
2013,10,14,15,10,14.50
2013,10,14,15,11,14.60
2013,10,14,15,12,14.60
2013,10,14,15,13,14.50
2013,10,14,15,14,14.60
2013,10,14,15,15,14.60
2013,10,14,15,16,14.60
2013,10,14,15,17,14.70
2013,10,14,15,18,14.60
2013,10,14,15,19,14.50
2013,10,14,15,20,14.50
2013,10,14,15,21,14.40
2013,10,14,15,22,14.40
2013,10,14,15,23,14.30
2013,10,14,15,24,14.20
2013,10,14,15,25,14.20
2013,10,14,15,26,14.20
2013,10,14,15,27,14.10
2013,10,14,15,28,14.00
2013,10,14,15,29,13.90
2013,10,14,15,30,13.80
2013,10,14,15,31,13.70
2013,10,14,15,32,13.70
2013,10,14,15,33,13.70
2013,10,14,15,34,13.60
2013,10,14,15,35,13.60
2013,10,14,15,36,13.70
2013,10,14,15,37,13.70
2013,10,14,15,38,13.70
2013,10,14,15,39,13.70
2013,10,14,15,40,13.60
2013,10,14,15,41,13.60
2013,10,14,15,42,13.60
2013,10,14,15,43,13.50
2013,10,14,15,44,13.40
2013,10,14,15,45,13.30
2013,10,14,15,46,13.30
2013,10,14,15,47,13.30
2013,10,14,15,48,13.20
2013,10,14,15,49,13.20
2013,10,14,15,50,13.10
2013,10,14,15,51,13.10
2013,10,14,15,52,13.00
2013,10,14,15,53,13.00
2013,10,14,15,54,12.90
2013,10,14,15,55,12.80
2013,10,14,15,56,12.80
2013,10,14,15,57,12.70
2013,10,14,15,58,12.60
2013,10,14,15,59,12.50
2013,10,14,16,00,12.50
2013,10,14,16,01,12.40
2013,10,14,16,02,12.40
2013,10,14,16,03,12.30
2013,10,14,16,04,12.30
2013,10,14,16,05,12.30
2013,10,14,16,06,12.20
2013,10,14,16,07,12.10
2013,10,14,16,08,12.10
2013,10,14,16,09,12.00
2013,10,14,16,10,12.00
2013,10,14,16,11,11.90
2013,10,14,16,12,11.90
2013,10,14,16,13,11.90
2013,10,14,16,14,11.90
2013,10,14,16,15,11.90
2013,10,14,16,16,11.90
2013,10,14,16,17,11.90
2013,10,14,16,18,11.90
2013,10,14,16,19,11.90
2013,10,14,16,20,11.90
2013,10,14,16,21,11.90
2013,10,14,16,22,11.90
2013,10,14,16,23,11.90
2013,10,14,16,24,11.90
2013,10,14,16,25,11.80
2013,10,14,16,26,11.80
2013,10,14,16,27,11.80
2013,10,14,16,28,11.80
2013,10,14,16,29,11.80
2013,10,14,16,30,11.80
2013,10,14,16,31,11.80
2013,10,14,16,32,11.80
2013,10,14,16,33,11.80
2013,10,14,16,34,11.80
2013,10,14,16,35,11.80
2013,10,14,16,36,11.80
2013,10,14,16,37,11.80
2013,10,14,16,38,11.80
2013,10,14,16,39,11.80
2013,10,14,16,40,11.80
2013,10,14,16,41,11.80
2013,10,14,16,42,11.80
2013,10,14,16,43,11.80
2013,10,14,16,44,11.80
2013,10,14,16,45,11.90
2013,10,14,16,46,11.90
2013,10,14,16,47,11.90
2013,10,14,16,48,11.90
2013,10,14,16,49,11.90
2013,10,14,16,50,11.90
2013,10,14,16,51,12.00
2013,10,14,16,52,12.00
2013,10,14,16,53,12.00
2013,10,14,16,54,12.00
2013,10,14,16,55,12.00
2013,10,14,16,56,12.00
2013,10,14,16,57,12.00
2013,10,14,16,58,12.00
2013,10,14,16,59,12.00
2013,10,14,17,00,12.00
2013,10,14,17,01,12.00
2013,10,14,17,02,12.00
2013,10,14,17,03,12.00
2013,10,14,17,04,12.00
2013,10,14,17,05,12.00
2013,10,14,17,06,12.00
2013,10,14,17,07,12.00
2013,10,14,17,08,12.00
2013,10,14,17,09,12.00
2013,10,14,17,10,12.00
2013,10,14,17,11,12.00
2013,10,14,17,12,12.00
2013,10,14,17,13,12.00
2013,10,14,17,14,12.00
2013,10,14,17,15,12.00
2013,10,14,17,16,12.00
2013,10,14,17,17,12.00
2013,10,14,17,18,12.00
2013,10,14,17,19,12.00
2013,10,14,17,20,12.00
2013,10,14,17,21,12.00
2013,10,14,17,22,11.90
2013,10,14,17,23,11.90
2013,10,14,17,24,11.90
2013,10,14,17,25,11.90
2013,10,14,17,26,11.90
2013,10,14,17,27,11.90
2013,10,14,17,28,11.90
2013,10,14,17,29,11.90
2013,10,14,17,30,11.90
2013,10,14,17,31,11.90
2013,10,14,17,32,11.90
2013,10,14,17,33,11.90
2013,10,14,17,34,11.90
2013,10,14,17,35,11.90
2013,10,14,17,36,11.90
2013,10,14,17,37,11.90
2013,10,14,17,38,11.80
2013,10,14,17,39,11.80
2013,10,14,17,40,11.80
2013,10,14,17,41,11.80
2013,10,14,17,42,11.80
2013,10,14,17,43,11.80
2013,10,14,17,44,11.80
2013,10,14,17,45,11.80